Main page
METAR-TAF:

METAR-TAF

Airports :

Defence School of Transport

Leconfield, England

latitude: 53-52-37N, longitude: 0-26-15W, elevation: 7 m

Current weather observation

The report was made 41 minutes ago, at 05:50 UTC
Wind 4 kt from the Southwest
Temperature 11°C
Humidity 94%
Pressure 1015 hPa
Visibility 10 km or more

METAR: EGXV 170550Z AUTO 22004KT 9999 FEW050/// BKN190/// 11/10 Q1015

Time: 07:31 (06:31 UTC)


TAF: missing

Weather observations and forecasts of more than 4000 airports (METAR and TAF reports).

The available stations are represented by yellow and red dots on the map.

Hover mouse over dot to see the name of the station.

Then click to see weather observations and forecasts.

To change the map : click on the green buttons with a black cross to zoom in, on the green button with a dash to zoom out, or on the green arrows for adjacent maps.


METAR-TAF: